Погода в Аргуне

Россия / Чеченская Республика     43°17′34″N   45°52′00″E
темп.,
°C
ветер,
м/с
пор.,
м/с
влажн.,
%
обл.,
%
осадки,
мм/ч
давл.,
гПа
погр.,
м
11 апреля, вс
вс1100:00+10сз1265100 0.0 1020453
03:00+8всв2272100 0.0 1019257
06:00+7св117563 0.0 1020217
09:00+11св235917 0.0 1019830
12:00+15св234896 0.0 10171184
15:00+18всв124395 0.0 10151187
18:00+16всв1150100 0.0 1014309
21:00+14з115798 0.0 1014160
12 апреля, пн
пн1200:00+12з246713 0.0 1014198
03:00+11ююз1172100 0.0 101580
06:00+11зюз137595 0.0 1017125
09:00+15зсз3457100 0.0 1018924
12:00+18ссз3249100 0.0 10181684
15:00+16сз3360100 0.1 1019723
18:00+14зсз2369100 0.1 1020342
21:00+13сз2376100 0.1 1021326
13 апреля, вт
вт1300:00+12сз2375100 0.0 1021369
03:00+12зсз1275100 0.0 1021342
06:00+11з1176100 0.0 1021330
09:00+13сз117198 0.0 1021641
12:00+14ссв2267100 0.0 10211018
15:00+14зсз1165100 0.0 1020727
18:00+14ююз1168100 0.0 1019323
21:00+13юз1173100 0.1 101972
14 апреля, ср
ср1400:00+12сз1281100 0.0 1016145
03:00+12з2384100 0.0 1015308
06:00+12з2681100 0.0 1016444
09:00+14с1166100 0.0 1016744
12:00+12ю1189100 7.1 1016222
15:00+13юв118298 10.3 1016276
18:00+13в117797 0.6 101618
21:00+12ююз2283100 0.8 101731
15 апреля, чт
чт1500:00+12юз2586100 0.9 1017244
03:00+11ю1186100 1.2 101715
06:00+10юз128699 0.0 101647
09:00+15ссз2261100 0.0 1016562
12:00+19ссв22445 0.0 10141296
15:00+21св223760 0.0 10131557
18:00+19всв354690 0.0 1013606
21:00+15ю1159100 0.1 101514